Wind_Speed
7 7 6 5 5 6 8 9 10 11 11 12 14 15 16 16 16 18 19 20 21 22 21 19 18 17 16 21 27 28 27 25 20 18 18 18 18 18 15 13 13 17
8 8 8 7 7 6 8 9 9 10 11 13 14 15 17 17 17 17 18 19 20 21 21 20 18 17 16 19 25 30 31 27 22 21 21 21 20 20 20 17 15 17
10 10 9 9 9 9 9 9 9 10 11 13 14 15 16 17 18 18 17 18 19 19 20 20 19 18 17 16 19 24 29 27 24 25 24 23 23 23 25 25 21 20
13 13 12 11 11 11 11 11 11 11 11 12 13 14 15 15 16 16 17 18 18 18 18 18 19 19 18 17 17 20 24 25 25 26 26 26 25 25 28 29 26 24
16 15 14 13 12 12 11 12 12 12 12 12 12 13 13 14 14 14 15 16 16 16 16 16 17 17 17 17 17 18 21 23 24 25 26 27 26 27 30 30 28 27
18 16 15 14 14 14 13 13 12 12 12 12 12 13 13 14 14 14 14 14 14 13 13 13 14 15 15 15 17 19 21 22 24 25 26 26 27 29 31 30 29 28
22 19 17 16 15 15 15 14 13 13 13 12 12 12 13 14 13 13 13 13 14 13 13 13 14 15 15 15 16 18 21 23 25 26 26 26 27 29 30 30 29 27
26 24 21 18 17 16 16 16 15 14 14 14 12 11 12 13 13 12 12 13 14 14 14 13 14 14 15 15 15 17 19 22 24 24 24 25 27 28 29 28 27 25
27 26 24 22 20 18 17 17 17 16 15 16 15 12 11 12 12 12 11 12 13 14 14 14 14 14 14 15 15 16 18 22 24 24 23 25 27 27 27 26 25 23
27 26 26 25 24 22 19 18 19 18 17 16 16 15 12 11 11 11 11 11 12 12 13 13 14 14 14 15 16 17 18 22 25 25 25 26 26 26 25 24 23 23
28 28 27 26 26 25 23 21 20 20 19 18 18 16 14 12 11 11 11 11 12 12 12 12 13 13 14 15 17 18 19 21 24 25 26 27 26 25 23 22 22 22
30 29 28 28 27 26 25 24 22 21 21 21 20 19 16 13 12 12 12 12 12 12 11 11 12 13 14 15 17 19 20 22 23 25 26 26 25 24 22 21 21 21
29 29 29 29 28 27 26 25 23 22 21 22 22 21 18 15 13 12 12 12 12 13 12 12 12 13 14 15 17 19 21 23 25 26 26 25 24 23 22 22 21 21
27 27 28 29 29 29 27 26 25 23 22 22 22 22 21 18 14 13 13 12 12 13 12 12 12 13 14 16 18 20 22 24 26 27 27 26 24 23 22 22 21 21
27 27 27 27 29 29 29 28 27 26 24 23 22 22 22 20 16 14 13 13 12 12 12 12 13 13 15 16 19 21 22 24 26 27 27 26 25 24 23 23 22 21
29 28 27 27 28 29 29 29 29 28 26 24 23 23 23 22 19 16 14 13 12 11 12 13 14 14 15 17 19 21 23 24 25 26 27 26 25 24 24 23 22 21
30 30 29 29 28 28 28 28 28 28 28 26 24 23 23 22 21 18 14 14 14 13 13 14 14 15 16 17 20 21 23 24 25 25 26 25 23 22 22 22 22 21
31 32 31 30 29 29 28 28 27 27 28 28 26 23 22 23 22 20 16 15 16 15 14 15 16 16 17 19 20 21 23 24 24 25 24 24 23 21 20 21 21 21
31 32 32 31 31 30 29 28 27 27 27 28 27 25 22 21 22 21 17 16 17 17 16 17 17 18 19 20 21 22 23 24 24 24 24 24 23 22 21 21 21 21
30 31 32 32 32 31 30 29 28 27 27 27 26 25 22 20 20 21 19 18 19 20 19 18 18 19 20 20 22 23 23 24 24 25 25 25 25 24 24 23 22 21
30 31 32 32 32 32 32 30 28 27 27 27 26 24 22 19 19 20 20 19 20 22 21 19 19 20 21 21 22 23 24 24 24 25 26 26 26 25 25 24 23 23
31 31 32 32 32 33 33 31 29 28 27 26 26 24 20 18 18 18 19 18 20 23 23 21 20 21 21 22 22 23 24 24 25 25 26 26 26 25 24 23 23 24
30 31 32 32 32 32 33 32 30 29 26 24 24 25 21 18 17 18 18 18 20 23 24 22 21 21 21 22 22 22 23 24 24 24 25 25 25 24 23 23 24 26
30 31 31 32 32 32 32 32 30 29 26 23 23 25 22 18 18 19 20 20 20 22 24 23 22 22 22 21 21 22 23 23 23 23 23 24 24 24 24 25 26 27
29 30 31 31 32 32 31 31 30 29 26 24 23 24 21 18 19 21 22 23 22 22 23 24 23 23 22 21 21 21 21 21 21 22 23 23 24 24 25 27 28 28
29 30 30 31 32 31 31 30 29 28 26 24 24 25 22 19 20 24 25 25 25 24 24 24 24 23 22 21 21 21 21 20 20 21 22 23 24 26 28 29 30 30
Wind_Direction
2 350 339 329 317 306 301 297 294 289 288 285 281 278 273 268 261 254 251 251 252 253 251 250 250 251 261 255 238 233 233 230 237 246 233 226 233 236 242 254 253 248
360 350 337 323 311 304 300 297 295 291 288 286 284 281 278 275 271 263 256 253 252 254 253 253 253 251 259 264 253 242 230 225 240 251 241 236 235 232 234 240 242 240
6 357 346 334 322 316 312 302 296 290 287 286 284 282 280 278 278 274 267 261 256 255 254 251 251 252 257 264 262 250 231 225 241 251 248 248 245 238 232 230 234 235
10 4 357 348 335 325 319 311 304 296 291 289 286 284 281 278 279 277 273 270 266 263 260 256 252 251 254 257 262 262 251 245 249 250 250 253 249 241 232 227 229 227
9 5 1 354 343 333 323 314 309 304 300 297 293 288 283 279 278 276 273 272 272 270 267 263 259 257 257 258 259 263 263 260 257 254 254 254 249 240 231 229 228 223
10 5 1 356 349 340 331 323 316 310 304 299 298 295 288 283 280 278 275 271 270 272 272 269 268 266 266 265 265 266 264 261 258 255 252 250 245 237 231 228 225 220
10 6 1 355 351 345 337 328 320 315 310 302 298 297 294 288 283 280 277 275 273 276 277 275 273 273 273 273 273 270 264 259 256 250 245 242 237 233 229 224 220 219
7 6 3 357 351 345 340 333 324 318 316 310 303 298 296 292 286 282 278 278 278 279 280 280 278 278 281 285 284 277 267 260 252 245 241 238 234 229 226 223 223 226
2 2 2 359 353 347 342 338 332 324 318 315 310 306 304 296 288 284 281 280 280 279 281 282 282 284 287 289 286 278 269 260 251 246 243 239 234 228 225 227 230 233
355 356 357 357 355 351 345 340 336 330 324 318 312 308 309 304 291 283 279 279 279 277 278 280 283 286 288 288 286 278 268 258 250 246 242 237 232 229 229 234 237 236
349 350 351 353 353 351 347 341 337 333 329 323 315 308 307 308 300 287 277 275 279 280 280 282 285 287 287 286 283 276 267 256 248 244 240 235 231 231 235 238 238 236
341 343 346 347 348 348 346 343 338 334 330 326 320 311 306 307 307 299 287 276 274 280 287 289 288 288 289 286 280 272 263 255 248 242 239 236 235 238 241 240 238 235
333 337 339 341 342 343 344 341 338 334 329 326 322 314 307 305 307 306 300 288 277 278 287 293 291 290 290 285 278 271 263 256 249 243 240 240 242 245 246 241 236 232
327 329 331 332 334 336 337 336 335 333 329 326 323 317 309 303 305 308 304 295 283 277 280 289 292 293 293 287 278 271 265 257 250 246 245 246 247 248 247 241 234 229
322 322 323 324 325 326 327 329 330 330 329 326 324 321 312 302 301 307 309 300 288 281 283 291 295 294 293 288 280 272 266 259 253 250 249 250 251 248 243 236 229 225
316 315 315 316 317 318 319 322 324 324 324 324 324 322 317 306 297 298 308 308 298 293 296 297 296 294 291 285 278 271 265 260 255 252 250 251 250 245 236 228 222 219
311 308 308 308 310 311 312 314 316 317 318 319 320 320 318 312 300 294 303 313 309 304 302 298 294 291 285 278 272 267 262 259 255 252 250 247 243 237 230 223 217 212
307 305 303 302 303 304 305 307 309 311 312 313 314 315 315 313 306 298 301 312 313 307 302 297 293 288 279 271 265 260 256 254 251 249 246 241 233 226 223 220 216 213
303 302 300 299 299 298 298 300 301 304 305 307 308 309 309 311 307 300 298 307 310 307 302 297 292 285 277 268 261 256 252 249 246 244 240 233 225 220 219 219 219 219
299 298 296 295 295 294 294 294 295 296 297 299 301 302 303 304 303 297 293 300 307 305 301 297 291 285 277 268 260 254 249 245 242 239 234 227 221 219 220 221 220 219
298 296 294 292 291 290 289 289 290 290 290 291 292 293 295 296 296 293 288 292 301 301 296 292 288 281 274 267 260 254 248 243 237 233 229 224 221 220 222 222 217 213
300 297 294 292 290 287 286 286 286 285 285 286 285 285 286 287 287 286 283 285 294 295 290 286 282 276 271 265 259 252 246 240 234 230 227 224 222 221 220 217 210 203
301 299 295 293 291 288 285 284 283 281 280 280 279 278 278 278 278 279 279 281 286 286 283 279 275 271 268 263 257 251 244 238 233 229 226 224 221 218 212 206 200 195
301 300 297 294 292 289 286 284 280 278 277 274 271 270 269 270 273 274 274 273 274 274 273 270 266 265 265 260 254 247 241 236 233 230 227 224 220 213 203 196 191 187
301 299 297 295 293 289 287 284 280 276 273 268 264 264 262 262 266 268 267 265 264 263 262 260 257 257 257 253 245 239 235 232 232 233 229 224 217 209 198 188 181 177
300 298 296 295 293 289 286 282 278 274 271 265 260 258 255 254 258 261 259 256 254 253 252 252 251 249 247 242 235 232 232 231 231 231 228 221 212 201 190 182 176 175
Height
1473 1473 1473 1473 1473 1473 1473 1472 1472 1472 1472 1471 1471 1471 1471 1471 1472 1472 1473 1473 1473 1474 1474 1475 1475 1475 1476 1478 1479 1480 1482 1484 1485 1486 1488 1489 1489 1490 1492 1493 1494 1496
1472 1473 1472 1473 1472 1472 1472 1472 1471 1471 1470 1470 1470 1469 1469 1469 1469 1469 1470 1470 1470 1471 1471 1472 1472 1473 1474 1475 1477 1478 1479 1481 1482 1483 1484 1486 1487 1487 1489 1489 1490 1491
1472 1472 1472 1472 1471 1471 1471 1471 1470 1469 1469 1469 1468 1468 1467 1467 1467 1467 1467 1468 1468 1468 1469 1469 1470 1471 1471 1472 1474 1475 1476 1477 1479 1480 1481 1482 1483 1485 1486 1487 1488 1488
1471 1471 1471 1471 1471 1470 1470 1469 1469 1468 1468 1467 1467 1466 1466 1465 1465 1465 1465 1465 1466 1466 1467 1467 1468 1469 1470 1470 1471 1472 1474 1475 1476 1476 1477 1478 1480 1482 1483 1484 1486 1486
1472 1471 1471 1470 1470 1469 1469 1468 1468 1467 1466 1466 1465 1465 1464 1464 1463 1463 1463 1463 1464 1464 1464 1465 1465 1466 1467 1468 1469 1470 1471 1472 1473 1474 1475 1476 1477 1479 1480 1482 1483 1484
1472 1471 1470 1470 1469 1469 1468 1468 1467 1466 1465 1464 1464 1463 1463 1462 1462 1462 1462 1462 1462 1462 1462 1463 1463 1464 1465 1466 1467 1467 1468 1470 1470 1471 1472 1474 1475 1476 1477 1479 1480 1481
1472 1471 1470 1469 1468 1468 1467 1467 1466 1465 1465 1463 1463 1462 1461 1461 1461 1460 1461 1461 1461 1461 1461 1461 1462 1462 1463 1464 1464 1465 1466 1467 1468 1469 1470 1471 1472 1474 1475 1476 1477 1479
1472 1470 1469 1468 1467 1467 1466 1466 1465 1464 1464 1462 1462 1461 1460 1460 1459 1459 1459 1459 1459 1460 1459 1460 1460 1461 1461 1462 1463 1464 1465 1466 1467 1467 1468 1469 1470 1472 1473 1474 1476 1477
1472 1470 1469 1467 1466 1466 1465 1464 1464 1463 1463 1461 1460 1459 1459 1459 1458 1458 1458 1458 1458 1458 1458 1459 1459 1459 1460 1460 1461 1462 1463 1464 1465 1466 1467 1467 1469 1470 1471 1473 1474 1475
1471 1469 1468 1466 1465 1465 1464 1464 1463 1462 1462 1461 1460 1458 1457 1457 1457 1457 1457 1457 1457 1457 1457 1457 1458 1458 1458 1459 1460 1461 1461 1463 1464 1465 1465 1466 1467 1469 1470 1471 1472 1473
1470 1468 1466 1465 1465 1464 1464 1463 1462 1461 1461 1460 1459 1458 1456 1456 1455 1455 1455 1455 1456 1456 1456 1456 1456 1456 1457 1457 1458 1459 1460 1461 1462 1463 1464 1465 1466 1467 1468 1469 1470 1471
1467 1466 1465 1465 1465 1464 1463 1462 1461 1460 1460 1459 1458 1458 1456 1455 1454 1454 1454 1454 1454 1454 1454 1454 1455 1455 1455 1456 1456 1457 1458 1459 1460 1461 1462 1463 1464 1465 1466 1467 1468 1469
1466 1464 1463 1463 1463 1463 1463 1462 1461 1460 1459 1458 1457 1457 1456 1454 1453 1453 1452 1452 1452 1453 1453 1453 1453 1453 1454 1454 1455 1456 1456 1458 1459 1460 1461 1461 1462 1463 1464 1465 1466 1467
1465 1464 1463 1462 1462 1462 1461 1461 1460 1459 1458 1457 1456 1456 1455 1454 1452 1451 1451 1451 1451 1451 1451 1451 1452 1452 1452 1453 1453 1454 1455 1456 1457 1458 1459 1460 1460 1461 1462 1463 1464 1465
1463 1462 1463 1462 1461 1460 1459 1459 1458 1457 1457 1456 1455 1454 1454 1453 1451 1450 1450 1450 1449 1449 1450 1450 1450 1450 1451 1451 1452 1453 1453 1454 1455 1456 1457 1458 1458 1459 1460 1461 1462 1463
1460 1460 1461 1461 1460 1459 1458 1457 1456 1455 1454 1454 1453 1453 1452 1451 1450 1449 1448 1448 1448 1448 1448 1448 1449 1449 1449 1450 1450 1451 1452 1452 1453 1454 1455 1455 1456 1457 1457 1458 1460 1461
1458 1457 1458 1458 1458 1457 1456 1456 1455 1453 1452 1452 1451 1451 1450 1449 1449 1448 1447 1447 1447 1447 1447 1447 1447 1448 1448 1449 1449 1450 1450 1451 1452 1452 1453 1453 1454 1455 1456 1457 1458 1459
1455 1454 1455 1455 1454 1454 1454 1453 1453 1452 1451 1450 1449 1449 1448 1447 1447 1446 1446 1445 1445 1445 1445 1445 1446 1446 1447 1447 1448 1448 1449 1449 1450 1451 1451 1452 1453 1453 1454 1455 1456 1458
1454 1452 1452 1451 1451 1451 1451 1450 1450 1449 1449 1448 1447 1447 1446 1445 1445 1445 1444 1444 1444 1444 1444 1444 1444 1444 1445 1445 1446 1446 1447 1448 1448 1449 1450 1451 1451 1452 1453 1454 1455 1456
1452 1451 1450 1449 1449 1448 1447 1447 1447 1446 1446 1446 1445 1445 1444 1443 1443 1443 1442 1442 1442 1442 1442 1442 1442 1442 1443 1444 1444 1445 1445 1446 1447 1448 1448 1449 1450 1451 1452 1452 1453 1454
1450 1449 1448 1447 1446 1445 1445 1444 1444 1444 1443 1443 1443 1442 1442 1441 1441 1441 1441 1440 1441 1441 1441 1441 1441 1441 1441 1442 1442 1443 1443 1444 1445 1446 1447 1448 1449 1449 1450 1451 1452 1453
1448 1447 1446 1445 1444 1443 1442 1441 1441 1441 1440 1440 1439 1439 1439 1439 1439 1439 1439 1438 1439 1439 1439 1439 1439 1439 1439 1440 1441 1441 1442 1443 1443 1444 1445 1446 1447 1448 1449 1450 1451 1452
1446 1444 1443 1442 1441 1440 1439 1439 1438 1438 1438 1438 1437 1435 1436 1436 1436 1437 1437 1436 1437 1438 1438 1437 1437 1437 1437 1438 1439 1440 1440 1441 1442 1442 1443 1445 1446 1447 1447 1449 1451 1453
1443 1441 1440 1438 1437 1437 1436 1435 1435 1435 1435 1436 1435 1433 1433 1433 1434 1434 1435 1435 1435 1435 1436 1435 1435 1435 1436 1436 1437 1438 1439 1440 1441 1442 1442 1443 1444 1446 1447 1448 1450 1453
1440 1438 1437 1435 1434 1433 1432 1432 1431 1431 1432 1433 1432 1431 1430 1431 1432 1432 1432 1433 1433 1433 1433 1433 1433 1433 1434 1434 1435 1436 1437 1438 1439 1440 1441 1442 1443 1445 1446 1448 1450 1452
1437 1435 1434 1432 1430 1429 1429 1428 1428 1428 1428 1429 1429 1429 1428 1428 1429 1429 1430 1431 1431 1430 1430 1431 1431 1432 1432 1432 1433 1434 1435 1436 1437 1438 1439 1441 1442 1444 1446 1447 1449 1450